FW4469 Weather Reports


Display with metric or nautical units.
time (UTC)temp
F
wind
direction
speed
MPH
gust
MPH
rain 1hr
in
rain 24hr
in
rain mn
in
humidity
%
barometer
mb
20260903001004 61 327 4.0 11.0 0.00 0.04 0.00 97 1015.2
20260903000004 61 329 4.0 10.0 0.00 0.04 0.00 97 1014.7
20260902235003 61 326 4.0 18.0 0.00 0.04 0.00 97 1014.9
20260902234003 61 325 4.0 11.0 0.00 0.04 0.00 97 1014.9
20260902233008 61 325 4.0 8.0 0.00 0.04 0.00 97 1015.0
20260902232008 61 325 4.0 9.0 0.00 0.04 0.00 97 1015.0
20260902231008 62 325 4.0 9.0 0.00 0.04 0.00 96 1014.9
20260902230008 62 326 4.0 12.0 0.00 0.04 0.00 96 1014.9
20260902225003 62 334 4.0 11.0 0.00 0.04 0.04 96 1015.1
20260902224003 61 327 4.0 14.0 0.00 0.04 0.04 96 1014.8
20260902223008 62 326 4.0 13.0 0.00 0.04 0.04 96 1014.6
20260902222008 62 327 5.0 12.0 0.00 0.04 0.04 96 1014.9
20260902221217 62 322 4.0 11.0 0.00 0.04 0.04 95 1015.0
20260902220009 62 326 4.0 13.0 0.00 0.04 0.04 95 1014.9
20260902215223 61 316 4.0 11.0 0.00 0.04 0.04 95 1014.9
20260902214014 62 325 4.0 9.0 0.00 0.04 0.04 94 1015.0
20260902213003 62 322 4.0 9.0 0.00 0.04 0.04 94 1015.1
20260902212008 62 322 4.0 9.0 0.00 0.04 0.04 94 1014.9
20260902211008 62 312 4.0 10.0 0.00 0.04 0.04 93 1015.0
20260902210003 62 325 4.0 10.0 0.00 0.04 0.04 93 1015.1
20260902205008 62 319 4.0 11.0 0.00 0.04 0.04 93 1015.2
20260902204008 62 318 3.0 9.0 0.00 0.04 0.04 93 1015.3
20260902203008 62 318 4.0 8.0 0.00 0.04 0.04 92 1015.1
20260902202003 62 321 4.0 12.0 0.00 0.04 0.04 92 1015.0
20260902201008 62 322 4.0 14.0 0.00 0.04 0.04 91 1015.0
20260902200013 62 322 4.0 11.0 0.00 0.04 0.04 91 1014.9
20260902195003 62 321 4.0 9.0 0.00 0.04 0.04 90 1014.9
20260902194218 63 318 3.0 10.0 0.00 0.04 0.04 90 1014.8
20260902193222 63 320 4.0 11.0 0.00 0.04 0.04 90 1014.7
20260902192228 63 320 4.0 12.0 0.00 0.04 0.04 90 1014.9
20260902191218 63 324 4.0 11.0 0.00 0.04 0.04 89 1014.6
20260902190222 63 327 4.0 9.0 0.00 0.04 0.04 89 1014.7
20260902185003 63 323 4.0 10.0 0.00 0.04 0.04 88 1014.5
20260902184009 64 323 4.0 10.0 0.00 0.04 0.04 88 1014.5
20260902183009 64 318 4.0 10.0 0.00 0.04 0.04 88 1014.5
20260902182222 64 323 4.0 9.0 0.00 0.04 0.04 89 1014.6
20260902181008 64 321 4.0 10.0 0.00 0.04 0.04 89 1014.4
20260902180222 64 315 4.0 10.0 0.00 0.04 0.04 89 1014.4
20260902175003 64 324 4.0 9.0 0.00 0.04 0.04 89 1014.5
20260902174004 64 317 4.0 9.0 0.00 0.04 0.04 90 1014.6
20260902173008 64 313 4.0 10.0 0.00 0.04 0.04 90 1014.4
20260902172004 64 321 4.0 14.0 0.00 0.04 0.04 90 1014.2
20260902171223 64 314 4.0 9.0 0.00 0.04 0.04 91 1014.5
20260902170008 65 315 4.0 11.0 0.00 0.04 0.04 90 1014.4
20260902165223 65 312 4.0 12.0 0.00 0.04 0.04 90 1014.5
20260902164008 65 323 4.0 13.0 0.00 0.04 0.04 91 1014.3
20260902163008 65 321 4.0 12.0 0.00 0.04 0.04 90 1014.2
20260902162008 65 321 4.0 12.0 0.00 0.04 0.04 92 1014.3
20260902161008 65 316 3.0 8.0 0.00 0.04 0.04 93 1014.3
20260902160005 65 325 4.0 10.0 0.00 0.04 0.04 94 1014.4
20260902155008 65 307 3.0 6.0 0.00 0.04 0.04 96 1014.4
20260902154003 64 319 4.0 7.0 0.00 0.04 0.04 96 1014.5
20260902153008 64 313 4.0 8.0 0.00 0.04 0.04 97 1014.7
20260902152004 64 319 3.0 8.0 0.00 0.04 0.04 96 1014.6
20260902151217 64 319 4.0 7.0 0.00 0.04 0.04 97 1014.5
20260902150003 63 317 3.0 7.0 0.00 0.04 0.04 97 1014.8
20260902145003 63 306 3.0 11.0 0.00 0.04 0.04 97 1014.4
20260902144009 63 309 3.0 7.0 0.00 0.04 0.04 97 1014.9
20260902143003 63 309 3.0 6.0 0.00 0.04 0.04 96 1015.0
20260902142004 63 310 3.0 7.0 0.00 0.04 0.04 96 1014.9
20260902141006 63 317 3.0 7.0 0.00 0.04 0.04 96 1014.9
20260902140222 63 310 3.0 7.0 0.00 0.04 0.04 98 1014.9
20260902135008 62 311 3.0 6.0 0.00 0.04 0.04 97 1014.9
20260902134008 62 312 3.0 6.0 0.00 0.04 0.04 97 1015.1
20260902133008 62 306 3.0 6.0 0.00 0.04 0.04 96 1015.2
20260902132003 62 316 3.0 7.0 0.00 0.04 0.04 96 1015.3
20260902131008 61 319 3.0 6.0 0.00 0.04 0.04 96 1015.5
20260902130004 62 311 3.0 6.0 0.00 0.04 0.04 97 1015.7
20260902125008 61 311 3.0 8.0 0.00 0.04 0.04 97 1015.8
20260902124004 61 316 3.0 5.0 0.00 0.04 0.04 97 1015.9
20260902123003 60 318 2.0 6.0 0.01 0.04 0.04 97 1016.0
20260902122008 60 315 3.0 6.0 0.01 0.04 0.04 97 1016.2
20260902121008 60 315 3.0 6.0 0.01 0.04 0.04 97 1016.3
20260902120003 60 313 3.0 8.0 0.01 0.04 0.04 96 1016.4
20260902115003 59 314 3.0 7.0 0.01 0.04 0.04 96 1016.3
20260902114003 60 317 3.0 7.0 0.01 0.04 0.04 96 1016.6
20260902113003 59 311 3.0 7.0 0.00 0.04 0.04 96 1016.7
20260902112008 59 314 3.0 7.0 0.00 0.03 0.03 96 1016.8
20260902111223 59 307 2.0 6.0 0.00 0.03 0.03 96 1017.0
20260902110223 59 323 3.0 10.0 0.00 0.03 0.03 96 1017.0
20260902105008 59 307 3.0 8.0 0.00 0.03 0.03 95 1017.3
20260902104009 59 329 3.0 8.0 0.00 0.03 0.03 94 1017.3
20260902103223 59 321 4.0 11.0 0.00 0.03 0.03 94 1017.5
20260902102008 59 304 3.0 9.0 0.01 0.03 0.03 95 1017.7
20260902101008 58 310 3.0 9.0 0.02 0.03 0.03 96 1017.7
20260902100008 58 318 3.0 8.0 0.02 0.03 0.03 96 1017.7
20260902095008 57 322 3.0 8.0 0.02 0.03 0.03 95 1017.9
20260902094003 57 309 3.0 8.0 0.02 0.03 0.03 94 1018.1
20260902093223 57 319 3.0 8.0 0.02 0.03 0.03 93 1018.0
20260902092008 58 305 2.0 7.0 0.01 0.02 0.02 95 1018.3
20260902091218 58 319 3.0 9.0 0.00 0.02 0.02 94 1018.2
20260902090010 58 320 3.0 6.0 0.00 0.01 0.01 95 1018.3
20260902085003 58 317 3.0 7.0 0.00 0.01 0.01 96 1018.1
20260902084008 58 316 3.0 6.0 0.00 0.01 0.01 97 1018.2
20260902083009 58 313 2.0 7.0 0.00 0.01 0.01 97 1018.3
20260902082003 57 318 3.0 7.0 0.00 0.01 0.01 98 1018.1
20260902081003 57 317 3.0 7.0 0.00 0.01 0.01 98 1018.2
20260902080004 57 328 3.0 7.0 0.00 0.01 0.01 98 1018.3
20260902075222 57 329 3.0 7.0 0.00 0.01 0.01 98 1018.2
20260902074218 56 324 3.0 7.0 0.00 0.01 0.01 99 1018.2
20260902073008 56 320 3.0 7.0 0.00 0.01 0.01 99 1018.4
20260902072003 56 324 3.0 7.0 0.00 0.01 0.01 99 1018.2
20260902071003 55 316 3.0 7.0 0.00 0.01 0.01 98 1018.1
20260902070004 55 314 3.0 7.0 0.00 0.02 0.01 98 1018.3
20260902065003 55 313 3.0 7.0 0.00 0.01 0.01 98 1018.2
20260902064224 55 317 3.0 7.0 0.00 0.01 0.01 98 1018.1
20260902063008 55 304 2.0 6.0 0.00 0.01 0.01 98 1018.1
20260902062008 55 311 3.0 6.0 0.00 0.01 0.01 98 1018.0
20260902061223 55 310 3.0 7.0 0.00 0.01 0.01 98 1017.9
20260902060004 55 310 3.0 7.0 0.00 0.01 0.01 98 1018.1
20260902055008 55 321 3.0 8.0 0.00 0.01 0.01 98 1018.0
20260902054008 55 310 2.0 8.0 0.00 0.01 0.01 98 1017.9
20260902053003 55 313 3.0 6.0 0.01 0.01 0.01 98 1017.9
20260902052008 55 323 4.0 9.0 0.01 0.01 0.01 97 1018.0
20260902051223 55 312 3.0 9.0 0.01 0.01 0.01 97 1018.1
20260902050009 55 307 3.0 8.0 0.01 0.01 0.01 97 1018.1
20260902045008 55 324 3.0 10.0 0.00 0.01 0.00 96 1018.1
20260902044003 55 314 3.0 7.0 0.00 0.01 0.00 96 1018.1
20260902043008 55 290 3.0 8.0 0.00 0.00 0.00 96 1018.1
20260902042008 55 282 3.0 8.0 0.00 0.00 0.00 96 1018.1
20260902041008 55 318 4.0 10.0 0.00 0.00 0.00 96 1018.1
20260902040222 55 325 5.0 10.0 0.00 0.00 0.00 96 1018.2
20260902035003 55 330 3.0 8.0 0.00 0.00 0.00 96 1018.2
20260902034003 55 310 3.0 9.0 0.00 0.00 0.00 96 1018.3
20260902033003 55 304 3.0 8.0 0.00 0.00 0.00 96 1018.5
20260902032004 55 288 3.0 7.0 0.00 0.00 0.00 96 1018.5
20260902031218 55 338 5.0 14.0 0.00 0.00 0.00 96 1018.8
20260902030004 55 325 4.0 7.0 0.00 0.00 0.00 95 1018.4
20260902025008 55 306 4.0 8.0 0.00 0.00 0.00 95 1018.4
20260902024003 55 321 4.0 10.0 0.00 0.00 0.00 95 1018.5
20260902023004 55 291 3.0 7.0 0.00 0.00 0.00 95 1018.6
20260902022003 55 325 3.0 5.0 0.00 0.00 0.00 96 1018.9
20260902021003 55 337 4.0 8.0 0.00 0.00 0.00 97 1018.9
20260902020218 54 331 4.0 7.0 0.00 0.00 0.00 97 1019.2
20260902015008 54 324 3.0 8.0 0.00 0.00 0.00 98 1019.2
20260902014003 54 331 4.0 8.0 0.00 0.00 0.00 98 1019.3
20260902013217 54 333 4.0 8.0 0.00 0.00 0.00 98 1019.3
20260902012003 54 332 4.0 7.0 0.00 0.00 0.00 99 1019.2
20260902011008 54 325 3.0 6.0 0.00 0.00 0.00 98 1019.1
20260902010003 54 327 3.0 6.0 0.00 0.00 0.00 98 1019.4
20260902005003 54 325 3.0 6.0 0.00 0.00 0.00 98 1019.3
20260902004008 54 325 3.0 6.0 0.00 0.00 0.00 98 1019.2
20260902003011 54 321 3.0 6.0 0.00 0.00 0.00 98 1019.5
20260902002004 53 326 3.0 5.0 0.00 0.00 0.00 98 1019.6